Medicine Lodge, KS

7:40 AM CST on December 13, 2019 (GMT -0600)
Medicine Lodge

Weather History for KP28 - October, 2019

Change the Weather History Date:

Tuesday, October 1, 2019

  Actual Average Record
Temperature  
Mean Temperature 79 °F 65 °F  
Max Temperature 89 °F 77 °F 97 °F (1979)
Min Temperature 71 °F 52 °F 32 °F (1958)
Degree Days  
Heating Degree Days 0 4  
Month to date heating degree days 4  
Since 1 July heating degree days 38  
Cooling Degree Days 14 3  
Month to date cooling degree days 3  
Year to date cooling degree days 1734  
Growing Degree Days 29 (Base 50)    
Moisture  
Dew Point 69 °F    
Average Humidity 76    
Maximum Humidity 93    
Minimum Humidity 51    
Precipitation  
Precipitation 0.00 in 0.09 in 2.40 in (1959)
Month to date precipitation 0.09  
Year to date precipitation 22.54  
Snow  
Snow 0.00 in 0.00 in - ()
Month to date snowfall 0.0  
Since 1 July snowfall 0.0  
Since 1 September snowfall 0.0  
Snow Depth -    
Sea Level Pressure  
Sea Level Pressure 29.82 in    
Wind  
Wind Speed 14 mph (South)    
Max Wind Speed 28 mph    
Max Gust Speed 38 mph    
T = Trace of Precipitation, MM = Missing Value Source: NWS Daily Summary

Daily Weather History Graph

Daily Weather History Graph

Search for Another Location

Airport or City:

Astronomy

Oct. 01, 2019 Rise Set
Actual Time 7:29 AM CDT 7:17 PM CDT
Civil Twilight 7:03 AM CDT 7:43 PM CDT
Nautical Twilight 6:33 AM CDT 8:13 PM CDT
Astronomical Twilight 6:02 AM CDT 8:44 PM CDT
Moon 10:43 AM CDT (10/1) 9:36 PM CDT (10/1)
Length of Visible Light 12h 40m
Length of Day
11h 48m
Waxing Crescent, 12% of the Moon is Illuminated
Oct 1
Waxing Crescent
Oct 5
First Quarter
Oct 13
Full
Oct 21
Last Quarter
Oct 27
New

Hourly Weather History & Observations

Time (CDT) Temp. Heat Index Dew Point Humidity Pressure Visibility Wind Dir Wind Speed Gust Speed Precip Events Conditions
1:56 AM 75.9 °F - 71.1 °F 85% 29.83 in - South 16.1 mph 26.5 mph N/A   Unknown
2:56 AM 75.0 °F - 71.1 °F 87% 29.84 in - South 12.7 mph 21.9 mph N/A   Unknown
3:56 AM 75.0 °F - 70.0 °F 84% 29.83 in - South 11.5 mph 23.0 mph N/A   Unknown
4:56 AM 73.9 °F - 70.0 °F 87% 29.83 in - South 12.7 mph 23.0 mph N/A   Unknown
6:56 AM 73.9 °F - 70.0 °F 87% 29.84 in - South 16.1 mph 26.5 mph N/A   Unknown
10:56 AM 81.0 °F 84.9 °F 71.1 °F 72% 29.86 in - South 16.1 mph 31.1 mph N/A   Unknown
11:56 AM 84.0 °F 88.4 °F 70.0 °F 63% 29.85 in - SSW 20.7 mph 32.2 mph N/A   Unknown
12:56 PM 86.0 °F 89.4 °F 68.0 °F 55% 29.82 in - South 27.6 mph 36.8 mph N/A   Unknown
1:56 PM 87.1 °F 90.6 °F 68.0 °F 53% 29.80 in - South 19.6 mph 35.7 mph N/A   Unknown
2:56 PM 87.1 °F 89.9 °F 66.9 °F 51% 29.75 in - South 20.7 mph 38.0 mph N/A   Unknown
3:56 PM 84.9 °F 88.2 °F 68.0 °F 57% 29.77 in - SSW 20.7 mph 35.7 mph N/A   Unknown
4:56 PM 79.0 °F - 63.0 °F 58% 29.80 in - SW 18.4 mph 27.6 mph N/A   Unknown
5:56 PM 75.9 °F - 66.0 °F 71% 29.82 in - West 13.8 mph 25.3 mph N/A   Unknown
6:56 PM 73.9 °F - 68.0 °F 82% 29.83 in - West 5.8 mph - N/A   Unknown
7:56 PM 73.0 °F - 69.1 °F 87% 29.81 in - SE 4.6 mph - N/A   Unknown
8:56 PM 73.0 °F - 68.0 °F 84% 29.85 in - SSW 3.5 mph - N/A   Unknown
9:56 PM 71.1 °F - 69.1 °F 93% 29.85 in - Calm Calm - N/A   Unknown
10:56 PM 72.0 °F - 69.1 °F 91% 29.84 in - East 4.6 mph - N/A   Unknown
11:56 PM 71.1 °F - 69.1 °F 93% 29.84 in - Calm Calm - N/A   Unknown